This is the latest recevied weather packets stored in our database for station/object N5PLO-10. If no packets are shown the sender has not sent any weather packets the latest 10 day(s).
| Time | Temp. | Humidity | Pressure | Rain* | Wind** | Luminosity | Snow |
|---|---|---|---|---|---|---|---|
| 1777618400 | 18.89° C | 99% | 1015 hPa | 1.27 mm | - | 0 W/m² | - |
| 1777618097 | 18.89° C | 99% | 1015.6 hPa | 1.27 mm | - | 0 W/m² | - |
| 1777617794 | 18.89° C | 99% | 1015.4 hPa | 0 mm | - | 0 W/m² | - |
| 1777617493 | 18.89° C | 99% | 1015.5 hPa | 0 mm | - | 0 W/m² | - |
| 1777617191 | 18.89° C | 99% | 1015.6 hPa | 0 mm | - | 0 W/m² | - |
| 1777616887 | 18.89° C | 99% | 1016 hPa | 0 mm | - | 0 W/m² | - |
| 1777616583 | 18.89° C | 99% | 1015.5 hPa | 1.78 mm | - | 0 W/m² | - |
| 1777616277 | 18.89° C | 99% | 1015.9 hPa | 1.78 mm | - | 0 W/m² | - |
| 1777615975 | 18.89° C | 99% | 1015.8 hPa | 0 mm | - | 0 W/m² | - |
| 1777615671 | 18.89° C | 99% | 1016.6 hPa | 0 mm | - | 0 W/m² | - |
| 1777615369 | 18.89° C | 99% | 1016 hPa | 1.27 mm | - | 0 W/m² | - |
| 1777615068 | 18.89° C | 99% | 1015.7 hPa | 1.27 mm | - | 0 W/m² | - |
| 1777614764 | 18.89° C | 99% | 1016.7 hPa | 0 mm | - | 0 W/m² | - |
| 1777614459 | 18.89° C | 99% | 1016.1 hPa | 1.78 mm | - | 0 W/m² | - |
| 1777614155 | 18.89° C | 99% | 1016.8 hPa | 1.78 mm | - | 0 W/m² | - |
| 1777613850 | 18.89° C | 99% | 1017 hPa | 0 mm | - | 0 W/m² | - |
| 1777613548 | 19.44° C | 99% | 1016.9 hPa | 1.27 mm | - | 0 W/m² | - |
| 1777613244 | 19.44° C | 99% | 1017.2 hPa | 1.27 mm | - | 0 W/m² | - |
| 1777612941 | 19.44° C | 99% | 1017.6 hPa | 1.78 mm | - | 0 W/m² | - |
| 1777612636 | 19.44° C | 99% | 1017.3 hPa | 3.56 mm | - | 0 W/m² | - |
| 1777612333 | 19.44° C | 98% | 1017.5 hPa | 3.05 mm | - | 0 W/m² | - |
| 1777612028 | 20° C | 98% | 1017.2 hPa | 4.32 mm | - | 0 W/m² | - |
| 1777611723 | 20° C | 97% | 1017.7 hPa | 3.05 mm | - | 0 W/m² | - |
| 1777611420 | 20° C | 96% | 1017.3 hPa | 0 mm | - | 0 W/m² | - |
| 1777611117 | 20° C | 96% | 1017.2 hPa | 0 mm | - | 0 W/m² | - |
* Rain latest hour (hover to see other rain measurements)
** Current wind speed in m/s (hover to see current wind gust speed)